Location: Ch�tillon
(48.8024°N, 2.2935°E)
Time: 08:03:35
(UTC+00:00)

LO-87 - Pass Details

Date: 30 June 2022
Orbit: 450 x 466 km, 97.4° (Epoch: 17 August)

Event Time Altitude Azimuth Distance (km) Brightness Sun altitude
Exits shadow 00:28:09 14° 260° (W) 1,401 ? -17.6°
Maximum altitude 00:28:39 14° 270° (W) 1,386 ? -17.6°
Drops below altitude 10° 00:30:29 10° 302° (WNW) 1,607 ? -17.6°
Sets 00:33:25 0° 330° (NNW) 2,506 ? -17.5°
